This is the latest recevied weather packets stored in our database for station/object EA1CZ-10. If no packets are shown the sender has not sent any weather packets the latest 10 day(s).
| Time | Temp. | Humidity | Pressure | Rain* | Wind** | Luminosity | Snow |
|---|---|---|---|---|---|---|---|
| 1777844104 | 4.44° C | 70% | 1027.7 hPa | - | - | - | - |
| 1777842304 | 4.44° C | 70% | 1027.7 hPa | - | - | - | - |
| 1777840504 | 6.67° C | 70% | 1027.5 hPa | - | - | - | - |
| 1777838704 | 8.89° C | 69% | 1027.2 hPa | - | - | - | - |
| 1777836904 | 8.89° C | 69% | 1027 hPa | - | - | - | - |
| 1777835104 | 7.78° C | 70% | 1026.6 hPa | - | - | - | - |
| 1777833303 | 7.22° C | 69% | 1026.5 hPa | - | - | - | - |
| 1777831503 | 10° C | 69% | 1026.5 hPa | - | - | - | - |
| 1777829703 | 8.33° C | 69% | 1026.4 hPa | - | - | - | - |
| 1777827903 | 10° C | 68% | 1026.1 hPa | - | - | - | - |
| 1777826103 | 10° C | 68% | 1026 hPa | - | - | - | - |
| 1777824303 | 11.67° C | 68% | 1026.1 hPa | - | - | - | - |
| 1777822503 | 10.56° C | 69% | 1026.3 hPa | - | - | - | - |
| 1777819946 | 10.56° C | 68% | 1026.3 hPa | - | - | - | - |
| 1777818146 | 11.67° C | 68% | 1026.3 hPa | - | - | - | - |
| 1777816346 | 8.89° C | 69% | 1026.5 hPa | - | - | - | - |
| 1777814546 | 11.11° C | 68% | 1026.4 hPa | - | - | - | - |
| 1777809196 | 8.33° C | 70% | 1026.4 hPa | - | - | - | - |
| 1777805595 | 6.67° C | 70% | 1026.9 hPa | - | - | - | - |
| 1777803795 | 8.33° C | 69% | 1026.8 hPa | - | - | - | - |
| 1777800170 | 7.78° C | 70% | 1026.9 hPa | - | - | - | - |
| 1777796570 | 6.11° C | 70% | 1027 hPa | - | - | - | - |
| 1777794770 | 5.56° C | 70% | 1026.9 hPa | - | - | - | - |
| 1777792970 | 5.56° C | 70% | 1026.9 hPa | - | - | - | - |
| 1777791170 | 5.56° C | 70% | 1026.7 hPa | - | - | - | - |
* Rain since midnight (hover to see other rain measurements)
** Current wind speed in m/s (hover to see current wind gust speed)